Location: Aulus
(42.7909°N, 1.3399°E)
Time: 17:17:36
(UTC+00:00)

Daily predictions for brighter satellites

Satellite Brightness Start Highest point End
(mag) Time Altitude Azimuth Time Altitude Azimuth Time Altitude Azimuth
Cosmos 839 Rocket 4.4 19:37:19 10° SW 19:43:29 79° WNW 19:50:37 10° NNE
Lacrosse 5 rocket 3.3 19:45:59 10° NNW 19:48:14 16° NNE 19:50:26 10° ENE
Cosmos 2074 Rocket 4.3 19:43:53 10° N 19:49:56 50° ENE 19:55:55 10° SSE
CSL-04 Debris 4.2 19:44:31 10° SSE 19:49:58 86° ENE 19:55:28 10° NNW
Cosmos 1814 Rocket 4.3 19:45:19 10° S 19:50:10 46° ESE 19:55:05 10° NNE
SPOT 5 2.9 19:46:32 10° SSE 19:50:44 50° ENE 19:54:55 10° N
CRYOSAT 2 4.4 19:52:36 10° SSE 19:57:28 76° E 20:02:21 10° N
Alouette 2 Rocket 3.9 19:53:56 10° N 19:57:30 45° ENE 20:02:03 10° SSE
Cosmos 1656 4.1 19:53:04 10° NNW 19:58:32 49° ENE 20:03:53 10° SE
Cosmos 2154 Rocket 4.3 19:53:49 10° N 19:59:50 50° ENE 20:05:50 10° SSE
Cosmos 1933 4.0 19:57:50 10° SSE 20:01:19 33° E 20:04:49 10° NNE
Okean O Rocket 2.0 19:57:52 10° SE 20:02:02 47° ENE 20:06:12 10° N
Cosmos 2184 Rocket 4.1 19:56:42 10° N 20:02:54 62° E 20:09:08 10° SSE
Meteor PRIRODA 3.1 20:01:52 10° SSE 20:04:45 58° ENE 20:07:40 10° N
Okean-O 3.3 20:03:33 10° SE 20:07:35 38° ENE 20:11:40 10° N
Iridium 4 Rocket 4.0 20:02:40 10° N 20:07:36 44° E 20:12:54 10° SSE
ERS-1 Rocket 3.5 20:04:53 10° SE 20:09:37 45° ENE 20:14:23 10° N
MOS 1 4.3 20:10:46 10° SSE 20:16:26 75° ENE 20:22:09 10° N
ISS -1.2 20:16:10 10° NW 20:18:36 18° N 20:21:02 10° NE
Cosmos 1743 3.1 20:15:54 10° N 20:19:06 36° ENE 20:21:21 17° SE
Lacrosse 4 Rocket 4.4 20:16:27 10° W 20:19:22 19° NW 20:22:19 10° N
CZ-4B R/B 3.0 20:16:02 10° S 20:20:06 75° WSW 20:24:04 10° NNW
ARIANE 6 FM1 Upper Stage 2.5 20:17:16 10° SSW 20:21:17 78° SE 20:25:18 10° NE
NOSS 3-1 (C) 3.4 20:17:15 10° S 20:21:22 34° ESE 20:26:06 10° NE
Spot 2 Rocket 4.3 20:17:41 14° SE 20:21:29 35° ENE 20:26:01 10° N
Cosmos 1782 3.4 20:20:25 10° SSW 20:24:00 52° W 20:27:36 10° N
Cosmos 1726 Rocket 3.9 20:21:55 10° SSW 20:26:19 70° W 20:30:43 10° N
MetOp-B 4.1 20:22:00 10° SSE 20:27:21 85° ENE 20:32:45 10° NNW
Cosmos 1833 Rocket 2.9 20:22:09 10° S 20:27:33 50° ESE 20:33:00 10° NE
CZ-4 R/B 3.6 20:24:31 10° SSW 20:27:41 23° W 20:30:51 10° NW
DELTA 2 R/B (1) 4.1 20:28:00 10° SW 20:33:05 38° SSE 20:38:10 10° E
Cosmos 1733 4.2 20:32:52 10° NNE 20:35:20 21° ENE 20:36:07 19° E
Cosmos 1076 Rocket 3.5 20:32:07 10° N 20:36:28 89° ENE 20:40:11 14° S
Cosmos 158 Rocket 4.0 20:31:17 10° S 20:36:30 67° ESE 20:41:50 10° NNE
USA 186 4.2 20:34:51 10° SW 20:36:39 16° W 20:38:28 10° NW
USA 245 4.2 20:35:19 20° SE 20:37:49 43° ENE 20:42:29 10° N
Cosmos 2058 Rocket 3.0 20:37:19 10° S 20:41:47 85° E 20:46:16 10° N
DEBRIS 4.3 20:39:53 10° WNW 20:45:39 28° WSW 20:47:32 16° S
Helios 1A 3.4 20:45:52 10° N 20:49:51 61° WNW 20:53:48 10° SSW
PSLV R/B 4.5 20:49:41 25° E 20:50:30 28° ENE 20:53:19 10° N
NOSS 3-1 (A) 3.9 20:50:28 23° SE 20:51:09 24° ESE 20:55:15 10° ENE
Helios 1B rocket 4.1 20:49:09 10° SSW 20:52:16 26° W 20:55:24 10° NW
Cosmos 2360 4.2 20:47:01 10° NNW 20:52:46 89° WSW 20:56:36 22° SSE
ATLAS CENTAUR R/B 1.8 20:49:35 10° SW 20:53:11 55° NW 20:56:55 10° NNE
Terra 1.8 20:50:03 18° S 20:53:35 82° WSW 20:58:18 10° NNW
Cosmos 1980 Rocket 3.6 20:49:32 10° N 20:54:11 26° NE 20:57:27 16° E
Cosmos 1315 Rocket 4.0 20:55:12 22° E 20:55:31 23° E 20:58:36 10° NE
Cosmos 2208 Rocket 4.4 20:55:03 20° SSE 20:58:18 43° ESE 21:03:20 10° NNE
Meteor 1-26 Rocket 4.4 20:53:43 16° S 20:58:20 61° E 21:04:15 10° NNE
USA 234 3.3 20:52:34 10° NE 20:59:07 84° NW 21:05:40 10° SW
SAR-Lupe-2 3.4 20:57:49 30° SSE 20:59:27 86° ENE 21:03:02 10° NNW
Meteor 2-2 Rocket 4.3 20:57:32 11° S 21:03:07 79° E 21:09:08 10° NNE
BlueWalker 3 2.9 21:05:03 10° NW 21:08:28 37° NNE 21:10:13 23° E
Cosmos 1400 Rocket 4.5 21:06:07 10° SW 21:09:22 30° WNW 21:12:39 10° NNW
Cosmos 1125 Rocket 3.5 21:06:03 10° NNW 21:11:22 80° ENE 21:14:01 30° SSE
Cosmos 1346 Rocket 2.7 21:09:24 10° NNW 21:13:06 72° W 21:14:32 34° S
Cosmos 2366 rocket 4.1 21:11:32 10° N 21:17:52 64° E 21:21:09 29° SSE
IRS-1C Rocket 4.1 21:15:27 27° SSE 21:18:22 87° WSW 21:23:40 10° NNW
Ariane Rocket 3.0 21:16:59 32° SSE 21:19:18 71° ENE 21:24:22 10° N
Cosmos 1238 Rocket 3.0 21:22:13 42° E 21:22:15 42° E 21:25:31 10° NNE
Cosmos 44 3.2 21:18:55 10° NNW 21:23:31 76° ENE 21:25:13 40° SE
Cosmos 1570 Rocket 4.0 21:19:35 11° SSW 21:24:42 82° WNW 21:30:00 10° NNE
Lacrosse 5 rocket 0.7 21:22:39 10° NW 21:26:10 81° NE 21:26:34 66° ESE
CZ-4C R/B 3.9 21:19:13 10° NW 21:26:16 43° WSW 21:32:15 19° S
SL-8 Rocket 3.9 21:20:16 10° N 21:26:28 83° E 21:29:41 30° SSE
Cosmos 1697 Rocket 2.6 21:21:02 10° NNW 21:26:44 89° WSW 21:29:17 35° SSE
Cosmos 864 Rocket 4.5 21:23:22 10° N 21:29:41 78° E 21:32:50 32° SSE
ATLAS 3B R/B 4.0 21:30:06 22° ESE 21:30:24 22° ESE 21:35:59 10° ENE
Cosmos-2242 4.2 21:27:28 12° SSW 21:31:12 40° WNW 21:35:15 10° N
Cosmos 836 Rocket 4.4 21:27:43 20° SSW 21:31:24 88° ESE 21:36:37 10° NNE
Meteor 2-6 Rocket 4.3 21:30:20 33° SSE 21:32:56 63° E 21:38:38 10° NNE
Cosmos 1536 3.6 21:34:04 10° N 21:37:32 34° ENE 21:37:32 34° ENE
Cosmos 2221 2.4 21:37:29 55° SE 21:38:04 63° E 21:42:12 10° NNE
SeaSat 1 3.0 21:36:40 34° ESE 21:38:20 48° ENE 21:43:02 10° NNW
Okean O Rocket 4.0 21:35:43 10° SW 21:38:28 16° W 21:41:13 10° NW
Cosmos 1867 3.5 21:34:01 10° NNW 21:39:31 90° WSW 21:41:23 43° SSE
Cosmos 2150 Rocket 4.2 21:36:58 10° NNW 21:42:21 65° ENE 21:44:04 42° SE
Okean 1 3.0 21:42:38 71° E 21:42:38 71° E 21:46:18 10° NNE
Cosmos 2082 Rocket 2.4 21:42:04 41° SE 21:43:18 48° ESE 21:48:41 10° NE
SPOT 3 Rocket 3.8 21:43:33 34° S 21:45:43 62° WSW 21:50:49 10° NNW
Cosmos 2341 Rocket 4.2 21:41:53 10° NNW 21:48:04 67° W 21:51:18 29° SSW
Cosmos 773 Rocket 3.9 21:51:31 31° SSW 21:54:02 81° WNW 21:59:11 10° NNE
Cosmos 192 4.2 21:49:58 10° NNW 21:54:55 84° ENE 21:55:58 56° SSE
ISS -2.7 21:52:51 10° NW 21:56:02 39° NNE 21:56:12 38° NNE
Cosmos 220 Rocket 3.7 21:57:20 69° SSW 21:57:48 85° WNW 22:01:53 10° NNE
COSMOS 2406 3.6 21:59:10 41° ESE 21:59:27 41° ESE 22:04:45 10° NE
COBE Rocket 4.1 21:55:16 10° NNE 22:00:18 54° E 22:00:56 51° SE
Cosmos 1766 Rocket 3.9 21:57:49 10° N 22:02:05 48° ENE 22:02:12 48° E
USA 59 Rocket 2.1 22:10:23 11° NE 22:10:23 11° NE 22:10:31 10° NE
Cosmos 2333 Rocket 4.3 22:08:55 10° N 22:12:40 17° NE 22:15:53 12° E
DELTA 2 R/B (1) 3.4 22:13:35 10° WSW 22:19:03 63° S 22:19:10 62° SSE
ALOS 2 4.4 22:19:44 20° ENE 22:20:04 20° ENE 22:23:14 10° NNE
Meteor 2-9 Rocket 4.2 22:17:19 10° N 22:22:59 79° E 22:24:06 59° SSE
Cosmos 1821 Rocket 4.1 22:17:10 10° NNW 22:23:13 66° W 22:25:07 44° SSW
Cosmos 1805 4.0 22:21:45 10° NNW 22:24:24 44° NW 22:24:24 44° NW
Meteor 1-19 Rocket 4.3 22:25:46 55° S 22:27:13 82° E 22:33:16 10° NNE
Meteor 2-4 Rocket 4.5 22:30:52 36° E 22:31:04 36° E 22:36:17 10° NNE
Meteor 1-27 Rocket 3.6 22:30:54 61° SE 22:31:29 65° E 22:36:59 10° NNE
Cosmos 1980 Rocket 2.5 22:33:01 10° NW 22:38:26 51° WSW 22:39:12 47° SW
Sich 1 4.3 22:35:08 10° NNE 22:38:23 30° ENE 22:38:23 30° ENE
NOSS 3-1 (A) 4.0 22:37:43 15° WSW 22:41:24 45° NW 22:46:53 10° NNE
Intercosmos 25 Rocket 4.4 22:41:10 53° SW 22:42:26 72° WNW 22:50:21 10° N
BlueWalker 3 4.0 22:42:50 10° WNW 22:44:08 19° W 22:44:08 19° W
Meteor 2-15 4.4 22:40:11 10° N 22:46:17 67° E 22:47:14 58° SE
SL-16 R/B 2.8 22:44:28 10° NNW 22:49:56 46° ENE 22:51:04 41° E
Cosmos 1538 Rocket 4.1 22:50:41 60° E 22:50:41 60° E 22:55:26 10° NNE
Cosmos 1975 3.8 22:47:42 10° N 22:50:13 40° N 22:50:13 40° N
Meteor 1-11 Rocket 3.7 22:47:18 10° NNW 22:52:45 64° W 22:53:25 59° SW
CZ-4C R/B 4.5 22:51:13 10° N 22:54:01 35° NW 22:54:01 35° NW
Spot 4 4.0 22:56:44 62° ENE 22:56:44 62° ENE 23:01:20 10° N
Cosmos 2322 Rocket 3.4 22:53:40 10° N 22:58:47 33° NE 23:00:25 28° E
Cosmos 2237 4.1 22:53:48 10° NNW 22:59:32 80° ENE 23:00:06 71° SE
ARIANE 5 R/B 2.8 23:01:14 67° NNW 23:01:14 67° NNW 23:05:02 10° NNW
Cosmos 1842 Rocket 4.0 23:02:48 54° WNW 23:02:48 54° WNW 23:06:41 10° N
Cosmos 1408 Rocket 4.1 22:58:45 10° N 23:02:20 51° NE 23:02:20 51° NE
Meteor 2-15 Rocket 4.4 22:57:05 10° N 23:03:11 66° E 23:04:01 59° ESE
Cosmos 1470 4.3 23:05:17 10° N 23:07:19 29° NNE 23:07:19 29° NNE
Cosmos 1805 Rocket 4.2 23:05:53 10° N 23:09:35 49° NE 23:09:35 49° NE
Meteor 1-18 Rocket 4.4 23:14:33 58° ESE 23:14:45 58° E 23:20:30 10° NNE
SeaSat 1 4.0 23:16:18 23° W 23:16:18 23° W 23:19:49 10° NW
Cosmos 2278 3.6 23:10:31 10° NNW 23:16:12 74° ENE 23:16:39 70° ESE
GP-B 4.4 23:13:19 10° NNE 23:16:31 32° ENE 23:16:31 32° ENE
Exosat Rocket 3.8 23:13:08 10° NNW 23:18:04 57° ENE 23:18:24 55° E
Cosmos 2360 Rocket 3.1 23:13:12 10° NNW 23:18:28 39° ENE 23:19:47 34° E
Cosmos 1934 Rocket 4.1 23:12:52 10° NNW 23:19:02 63° W 23:20:02 56° SW
ATLAS 3B R/B 2.9 23:17:16 41° SW 23:20:15 82° NW 23:28:07 10° NE
USA 229 DEB 3.2 23:20:46 72° SSE 23:21:14 76° ESE 23:27:48 10° NE
USA 229 3.2 23:20:54 72° SSE 23:21:19 75° ESE 23:27:53 10° NE
CZ-2C R/B 4.5 23:17:36 10° N 23:21:44 42° WNW 23:21:44 42° WNW
Cosmos 1535 Rocket 4.3 23:16:07 10° N 23:22:28 89° W 23:23:18 70° S
Meteor 2-8 Rocket 4.4 23:17:52 10° N 23:24:04 75° E 23:24:49 66° SE
CENTAUR R/B 4.0 23:16:16 10° NNW 23:24:14 50° NE 23:31:24 17° ESE
ASTEX 1 4.2 23:21:50 10° NNE 23:26:06 41° ENE 23:26:06 41° ENE
Cosmos 2082 Rocket 3.9 23:23:50 14° WSW 23:27:36 27° NW 23:32:20 10° N
Cosmos 1743 Rocket 4.2 23:24:05 10° N 23:27:46 53° NNE 23:27:46 53° NNE
Cosmos 1605 Rocket 3.8 23:28:12 10° N 23:34:33 82° W 23:35:18 70° SSW
Cosmos 1420 Rocket 4.3 23:37:54 10° NNW 23:43:09 58° ENE 23:43:26 57° E
Cosmos 1151 Rocket 3.9 23:56:09 43° NW 23:56:09 43° NW 23:59:25 10° N
USA 59 Rocket 2.3 23:56:15 11° NW 23:56:38 11° NW 23:57:43 10° NNW
